TimeCDT,TemperatureF,Dew PointF,Humidity,Sea Level PressureIn,VisibilityMPH,Wind Direction,Wind SpeedMPH,Gust SpeedMPH,PrecipitationIn,Events,Conditions,WindDirDegrees,DateUTC
12:53 AM,75.9,73.9,94,29.90,6.0,Calm,Calm,-,N/A,,Clear,0,2012-09-07 05:53:00
1:53 AM,75.0,73.9,96,29.90,4.0,Calm,Calm,-,N/A,,Clear,0,2012-09-07 06:53:00
2:53 AM,73.9,73.0,97,29.91,5.0,Calm,Calm,-,N/A,,Clear,0,2012-09-07 07:53:00
3:53 AM,73.0,73.0,100,29.91,6.0,Calm,Calm,-,N/A,,Clear,0,2012-09-07 08:53:00
4:53 AM,73.0,72.0,96,29.91,6.0,Calm,Calm,-,N/A,,Clear,0,2012-09-07 09:53:00
5:08 AM,73.4,71.6,94,29.93,4.0,Calm,Calm,-,N/A,,Partly Cloudy,0,2012-09-07 10:08:00
5:53 AM,73.0,73.0,100,29.91,5.0,Calm,Calm,-,N/A,,Clear,0,2012-09-07 10:53:00
6:04 AM,73.4,71.6,94,29.92,4.0,Calm,Calm,-,N/A,,Scattered Clouds,0,2012-09-07 11:04:00
6:08 AM,73.4,71.6,94,29.92,2.5,Calm,Calm,-,N/A,,Mostly Cloudy,0,2012-09-07 11:08:00
6:26 AM,71.6,71.6,100,29.93,0.8,Calm,Calm,-,N/A,,Mist,0,2012-09-07 11:26:00
6:46 AM,71.6,71.6,100,29.93,0.2,Calm,Calm,-,N/A,Fog,Fog,0,2012-09-07 11:46:00
6:53 AM,73.0,73.0,100,29.92,0.2,Calm,Calm,-,N/A,Fog,Fog,0,2012-09-07 11:53:00
7:50 AM,73.4,73.4,100,29.94,0.5,Calm,Calm,-,N/A,Fog,Fog,0,2012-09-07 12:50:00
7:53 AM,73.9,73.9,100,29.93,0.5,Calm,Calm,-,N/A,Fog,Fog,0,2012-09-07 12:53:00
8:15 AM,75.2,75.2,100,29.94,2.0,Calm,Calm,-,N/A,,Overcast,0,2012-09-07 13:15:00
8:23 AM,75.2,75.2,100,29.95,3.0,Calm,Calm,-,N/A,,Overcast,0,2012-09-07 13:23:00
8:53 AM,75.9,75.0,97,29.93,6.0,East,3.5,-,N/A,,Mostly Cloudy,100,2012-09-07 13:53:00
9:17 AM,78.8,75.2,89,29.95,8.0,Calm,Calm,-,N/A,,Mostly Cloudy,0,2012-09-07 14:17:00
9:53 AM,80.1,75.0,85,29.94,9.0,Calm,Calm,-,N/A,,Overcast,0,2012-09-07 14:53:00
10:04 AM,80.6,75.2,84,29.96,9.0,SSE,4.6,-,N/A,,Mostly Cloudy,160,2012-09-07 15:04:00
10:34 AM,82.4,75.2,79,29.96,10.0,Calm,Calm,-,N/A,,Mostly Cloudy,0,2012-09-07 15:34:00
10:53 AM,84.0,73.9,72,29.94,10.0,Calm,Calm,-,N/A,,Mostly Cloudy,0,2012-09-07 15:53:00
11:53 AM,84.9,75.0,72,29.93,10.0,Calm,Calm,-,N/A,,Mostly Cloudy,0,2012-09-07 16:53:00
12:03 PM,84.2,75.2,74,29.95,10.0,East,4.6,-,N/A,,Scattered Clouds,80,2012-09-07 17:03:00
12:12 PM,86.0,73.4,66,29.94,10.0,South,3.5,-,N/A,,Mostly Cloudy,170,2012-09-07 17:12:00
12:53 PM,86.0,73.9,67,29.92,10.0,Calm,Calm,-,N/A,,Mostly Cloudy,0,2012-09-07 17:53:00
1:53 PM,88.0,73.0,61,29.89,10.0,Calm,Calm,-,N/A,,Partly Cloudy,0,2012-09-07 18:53:00
2:53 PM,88.0,72.0,59,29.87,10.0,Variable,4.6,-,N/A,,Clear,0,2012-09-07 19:53:00
3:53 PM,88.0,72.0,59,29.85,10.0,East,4.6,-,N/A,,Partly Cloudy,90,2012-09-07 20:53:00
4:53 PM,87.1,73.0,63,29.83,10.0,East,3.5,-,N/A,,Clear,90,2012-09-07 21:53:00
5:53 PM,88.0,72.0,59,29.83,10.0,Calm,Calm,-,N/A,,Clear,0,2012-09-07 22:53:00
6:53 PM,84.0,75.0,74,29.81,10.0,Calm,Calm,-,N/A,,Clear,0,2012-09-07 23:53:00
7:53 PM,80.1,75.0,85,29.81,10.0,Calm,Calm,-,N/A,,Clear,0,2012-09-08 00:53:00
8:53 PM,79.0,75.0,88,29.83,10.0,South,6.9,-,N/A,,Clear,170,2012-09-08 01:53:00
9:53 PM,78.1,73.9,87,29.85,10.0,Calm,Calm,-,N/A,,Clear,0,2012-09-08 02:53:00
10:53 PM,77.0,73.9,90,29.85,10.0,SSW,3.5,-,N/A,,Clear,200,2012-09-08 03:53:00
11:53 PM,75.9,73.9,94,29.85,10.0,Calm,Calm,-,N/A,,Clear,0,2012-09-08 04:53:00